Terug naar catalogus

FENGYUN 1C DEB

ActiefSSO
NORAD 31726·DEBRIS·🇨🇳 China

Gelanceerd May 10, 1999 vanaf Taiyuan Satellite Launch Center

Loading…

Volgende Passages (komende 24 uur)

TLE

VerouderendSource: Space-Track

Epoch: Sep 5, 2026, 20:33 UTC

1 31726U 99025CDZ 26248.85669275  .00000840  00000-0  36575-3 0  9995
2 31726  98.6876 269.0428 0231442 315.0750 169.8553 14.13376705678187

Volg FENGYUN 1C DEB in realtime met AllMySat

Download on the App Store